This is the latest recevied weather packets stored in our database for station/object CT2HRB-13. If no packets are shown the sender has not sent any weather packets the latest 10 day(s).
| Time | Temp. | Humidity | Pressure | Rain* | Wind** | Luminosity | Snow |
|---|---|---|---|---|---|---|---|
| 1777894801 | 17.78° C | 55% | 1017.2 hPa | - | - | - | - |
| 1777894501 | 18.33° C | 54% | 1017.2 hPa | - | - | - | - |
| 1777894201 | 18.33° C | 53% | 1017.2 hPa | - | - | - | - |
| 1777893902 | 17.78° C | 54% | 1017.1 hPa | - | - | - | - |
| 1777893601 | 17.78° C | 53% | 1017.1 hPa | - | - | - | - |
| 1777893301 | 18.33° C | 54% | 1017 hPa | - | - | - | - |
| 1777893002 | 18.33° C | 55% | 1017.2 hPa | - | - | - | - |
| 1777892702 | 17.78° C | 59% | 1017.1 hPa | - | - | - | - |
| 1777892402 | 17.22° C | 58% | 1017.4 hPa | - | - | - | - |
| 1777892102 | 17.78° C | 54% | 1017 hPa | - | - | - | - |
| 1777891801 | 18.33° C | 52% | 1017.1 hPa | - | - | - | - |
| 1777891501 | 17.78° C | 54% | 1017 hPa | - | - | - | - |
| 1777891201 | 17.78° C | 54% | 1017.1 hPa | - | - | - | - |
| 1777890902 | 18.33° C | 54% | 1016.9 hPa | - | - | - | - |
| 1777890601 | 17.78° C | 55% | 1016.9 hPa | - | - | - | - |
| 1777890301 | 18.33° C | 53% | 1017 hPa | - | - | - | - |
| 1777890002 | 18.89° C | 55% | 1016.9 hPa | - | - | - | - |
| 1777889701 | 18.33° C | 61% | 1017 hPa | - | - | - | - |
| 1777889402 | 17.78° C | 60% | 1017 hPa | - | - | - | - |
| 1777889102 | 17.22° C | 62% | 1017.1 hPa | - | - | - | - |
| 1777888801 | 17.78° C | 62% | 1016.8 hPa | - | - | - | - |
| 1777888501 | 17.78° C | 63% | 1016.7 hPa | - | - | - | - |
| 1777888201 | 17.22° C | 63% | 1016.8 hPa | - | - | - | - |
| 1777887902 | 16.67° C | 63% | 1016.8 hPa | - | - | - | - |
| 1777887601 | 17.22° C | 63% | 1016.7 hPa | - | - | - | - |
* Rain since midnight (hover to see other rain measurements)
** Current wind speed in m/s (hover to see current wind gust speed)